Wind_Speed
48 49 51 51 52 53 53 53 54 55 55 55 55 55 56 57 57 57 58 58 58 58 57 57 57 58 58 57 57 57 55 54 54 53 52 52 52 52 52 52 52 51 51
47 48 50 51 51 52 52 53 53 54 54 55 54 55 55 56 56 56 56 57 58 58 58 58 58 57 58 58 58 58 56 54 54 53 53 53 53 53 52 53 52 51 51
46 47 48 49 50 50 51 51 52 53 54 54 55 56 57 57 56 57 57 57 57 58 58 59 59 58 57 57 58 58 58 56 55 54 53 53 53 53 53 53 53 52 52
46 46 47 48 48 49 49 50 50 51 52 53 54 56 57 57 57 57 57 57 56 56 57 57 57 57 56 56 56 56 57 56 55 55 54 53 53 53 53 53 53 52 52
45 45 45 46 47 47 47 48 48 48 48 50 52 53 54 55 56 56 56 56 56 56 55 56 56 55 56 55 55 55 56 56 56 55 54 54 53 53 53 53 53 53 52
44 44 44 44 44 45 46 47 47 47 47 48 50 51 52 53 54 54 55 55 54 53 53 53 54 55 55 55 55 55 54 54 54 54 53 53 52 52 52 52 53 54 53
43 42 42 43 43 44 44 45 47 47 47 48 48 49 49 50 51 53 54 53 52 51 51 50 51 52 53 53 53 54 53 52 52 52 51 51 51 52 52 52 53 53 53
42 42 42 42 42 42 43 44 45 45 46 47 46 47 47 47 48 49 51 52 51 49 49 49 50 50 51 52 52 52 52 51 51 50 50 50 52 52 52 52 53 53 53
42 42 42 41 41 41 41 42 42 42 43 44 44 44 44 44 45 46 47 48 48 48 47 47 47 48 49 50 50 50 50 50 51 51 51 51 51 51 51 52 53 54 53
39 39 39 40 40 39 39 40 40 40 41 41 41 41 41 41 41 42 43 44 45 46 46 46 46 47 47 47 48 49 49 49 50 50 50 50 51 51 50 51 52 52 53
38 37 37 37 37 37 38 38 39 39 39 39 38 39 39 39 39 40 40 41 41 42 43 44 44 45 45 45 45 46 47 47 49 49 49 49 50 49 49 50 50 51 52
37 37 37 35 35 35 35 36 37 37 37 37 37 36 37 37 36 37 38 38 38 39 40 41 42 42 42 43 43 44 45 46 46 47 47 47 48 48 48 48 48 49 49
35 35 34 34 33 33 33 33 33 34 35 35 35 35 36 36 36 35 36 37 38 37 37 38 39 40 40 41 41 42 43 43 44 44 45 45 45 46 46 46 46 46 47
34 33 33 33 32 32 33 32 33 33 33 33 33 33 33 34 34 35 34 35 36 37 37 37 37 38 39 39 40 40 41 42 42 43 43 43 44 44 44 44 45 45 45
34 33 32 32 31 31 31 30 31 31 31 31 31 32 32 32 33 33 33 34 34 35 35 36 36 36 37 37 38 39 39 39 40 41 41 41 41 42 43 43 44 44 44
34 33 33 32 31 30 30 30 30 30 30 30 30 30 30 30 32 33 33 33 33 34 34 35 34 34 34 34 35 36 37 38 38 39 39 40 40 41 41 42 42 42 42
33 33 32 31 30 29 29 28 28 29 29 29 29 28 28 29 30 31 31 32 32 33 34 34 34 34 33 33 33 33 34 35 36 36 37 37 38 39 39 39 40 41 42
33 31 30 30 29 29 29 28 28 27 27 28 28 28 27 28 28 29 30 30 31 32 32 33 33 33 33 32 32 33 33 33 34 35 35 36 36 37 37 38 38 39 39
32 31 30 29 29 29 28 28 28 27 27 27 27 27 27 27 27 27 28 29 30 30 31 32 32 32 32 32 32 32 32 32 33 33 34 34 35 35 36 36 36 37 37
31 30 29 29 29 29 28 27 26 26 26 25 25 26 26 26 26 26 27 28 29 29 30 31 31 30 31 31 32 32 32 32 32 32 33 34 34 34 34 34 35 34 34
30 29 29 29 28 27 27 26 25 25 25 24 24 24 24 25 25 26 26 26 27 28 29 29 29 29 30 30 31 31 32 32 32 32 32 32 32 32 33 33 33 34 34
29 28 27 26 26 25 25 24 24 24 23 23 23 23 23 24 24 24 25 25 26 27 27 27 28 29 29 30 30 31 31 31 31 31 31 31 31 32 33 33 33 33 33
29 27 26 25 24 24 23 23 23 22 22 22 22 22 22 22 22 23 23 24 24 25 26 27 27 27 28 29 29 29 30 30 30 31 31 32 32 32 32 33 33 33 33
28 27 26 25 24 23 22 21 21 20 20 20 20 20 21 21 20 21 21 22 23 23 24 25 25 25 26 27 28 28 29 30 31 31 31 31 32 32 32 32 32 31 31
27 26 25 24 23 22 21 20 20 19 18 19 19 19 19 19 19 20 20 21 21 22 22 23 23 23 24 25 26 27 27 28 30 30 31 32 32 32 32 32 31 31 31
25 24 24 23 22 21 21 20 19 18 18 17 17 17 17 17 18 18 18 20 20 21 21 22 22 22 23 24 24 25 26 27 28 29 30 31 31 30 30 30 30 30 30
Wind_Direction
275 272 269 267 264 263 263 263 263 263 261 260 258 258 257 257 257 258 258 257 257 257 257 257 257 256 255 256 256 256 257 257 257 255 254 253 253 252 252 252 252 252 252
276 274 271 268 266 264 263 263 264 263 261 260 259 259 258 257 256 257 258 257 257 257 257 257 257 257 256 255 255 255 255 255 256 255 254 253 252 253 253 253 252 252 252
277 275 273 270 268 266 264 264 264 264 262 261 261 260 259 258 258 257 258 257 258 258 257 257 257 257 256 255 254 254 253 253 253 254 254 253 252 253 253 253 253 253 253
279 277 275 272 270 268 266 264 264 265 263 262 261 261 260 259 258 258 257 257 257 257 258 257 256 256 255 255 254 253 253 252 252 253 253 252 252 253 254 253 252 252 253
282 278 276 274 271 269 267 265 265 266 265 264 262 262 262 260 259 258 258 257 257 257 256 256 255 254 254 253 253 252 251 251 251 251 252 252 252 252 253 253 252 252 252
284 280 277 275 272 270 268 267 266 267 267 266 265 264 263 261 260 258 257 257 257 256 256 255 254 253 253 252 251 251 250 250 250 250 251 251 251 251 252 252 252 251 252
283 282 279 276 274 272 271 269 268 268 268 268 267 266 263 262 261 259 258 257 256 256 255 254 254 253 252 252 251 250 249 249 250 250 250 251 251 251 251 251 251 251 252
284 283 281 278 275 274 273 272 270 270 269 268 268 266 264 262 261 259 257 256 255 255 255 255 254 252 251 250 250 250 250 250 250 250 251 251 251 251 251 251 251 252 252
285 283 281 279 277 276 274 273 272 271 270 269 268 266 265 262 261 260 258 257 255 254 254 254 253 252 251 250 250 250 250 250 250 250 250 250 251 251 251 251 252 252 252
287 283 281 280 279 276 276 276 274 272 271 270 269 267 265 263 261 259 259 257 256 254 253 253 253 253 251 251 249 249 249 249 249 249 249 249 250 251 251 252 252 253 252
289 285 284 283 282 279 277 276 275 273 271 270 268 266 264 263 261 259 258 257 256 254 253 252 252 252 252 251 250 249 249 248 248 248 248 248 250 250 251 251 252 252 253
292 287 285 285 283 281 278 277 276 274 271 269 267 265 263 262 260 259 257 255 254 253 253 251 251 250 250 250 250 249 248 248 248 247 248 248 249 250 251 252 252 254 253
294 292 287 284 283 281 280 280 278 274 272 270 268 265 262 260 259 258 255 254 254 252 252 252 250 249 249 249 250 249 249 247 247 247 248 248 249 250 250 251 251 252 252
295 292 290 286 282 281 280 280 279 276 273 271 268 266 263 260 258 256 255 253 252 251 251 250 249 248 249 249 249 249 249 248 248 248 248 249 250 249 249 250 251 251 252
296 293 290 288 284 282 281 281 280 277 274 272 270 267 263 260 258 257 255 253 251 249 248 247 246 247 247 248 250 249 248 248 248 249 248 248 249 248 249 250 251 251 252
296 293 291 289 287 284 282 280 280 278 275 273 271 268 265 262 259 257 255 253 250 248 247 246 245 245 247 248 248 247 247 247 247 247 246 246 246 247 247 249 250 251 251
295 293 291 289 286 285 284 281 280 278 276 274 271 269 266 263 260 257 253 250 249 246 246 245 244 244 245 245 245 245 245 245 244 243 243 244 244 245 247 248 249 250 252
295 293 291 288 286 285 284 282 281 278 275 272 271 269 267 264 261 257 252 250 248 245 244 244 244 244 244 244 244 243 243 243 242 242 243 244 245 246 247 248 250 251 251
295 292 290 288 287 285 284 282 281 279 276 272 269 267 266 263 260 256 253 250 248 246 245 244 244 243 243 243 241 241 241 242 242 243 244 246 247 248 249 249 250 250 250
295 293 291 289 287 285 284 283 281 278 275 272 269 267 264 261 257 255 254 251 248 246 244 244 243 243 242 241 240 240 241 241 243 245 245 246 247 247 248 248 250 250 251
295 294 292 291 289 286 283 282 281 277 274 272 269 266 263 259 256 253 251 250 247 245 244 243 243 243 242 239 239 239 240 242 244 245 245 246 248 247 248 248 249 250 251
295 294 293 291 290 288 286 283 280 277 273 271 268 265 263 260 256 252 250 249 248 245 243 243 243 241 239 238 239 240 240 243 245 245 245 245 247 247 248 248 249 250 250
293 292 291 290 289 288 287 286 282 277 272 270 268 265 262 259 256 253 250 248 248 246 244 242 240 239 238 238 239 239 239 241 244 244 245 245 246 247 248 249 249 249 249
292 290 289 288 287 286 286 285 282 277 272 270 269 266 263 259 257 256 251 248 247 245 243 241 240 240 239 238 238 239 240 241 242 242 242 244 245 247 247 248 249 249 249
292 290 288 287 285 284 284 283 280 277 273 270 268 265 262 259 257 255 250 246 244 242 242 240 238 239 239 238 238 240 242 242 243 243 243 244 246 246 246 246 246 247 249
293 290 288 286 284 283 282 280 277 274 271 269 266 263 259 256 254 252 248 244 242 240 240 239 238 239 240 239 239 240 241 243 244 244 244 244 244 243 244 245 245 246 247
Height
5569 5568 5568 5568 5568 5569 5570 5571 5572 5573 5574 5576 5578 5581 5583 5585 5588 5591 5593 5596 5599 5602 5605 5608 5611 5615 5618 5621 5625 5628 5631 5634 5639 5645 5648 5652 5655 5659 5662 5666 5670 5674 5678
5556 5554 5553 5553 5553 5554 5555 5556 5556 5558 5559 5560 5562 5564 5567 5569 5571 5574 5577 5579 5582 5586 5589 5592 5595 5598 5601 5605 5608 5612 5616 5619 5623 5628 5633 5637 5640 5644 5648 5652 5656 5660 5664
5542 5541 5539 5538 5538 5539 5540 5540 5541 5542 5543 5545 5546 5548 5550 5552 5555 5557 5560 5563 5566 5569 5572 5575 5578 5581 5585 5588 5592 5595 5600 5604 5608 5612 5617 5622 5625 5629 5633 5637 5641 5645 5650
5529 5527 5525 5524 5524 5524 5525 5526 5526 5527 5528 5529 5530 5532 5534 5536 5538 5540 5543 5546 5550 5553 5555 5558 5561 5565 5568 5572 5575 5579 5583 5588 5592 5596 5602 5606 5611 5614 5618 5622 5626 5631 5635
5517 5514 5512 5511 5511 5511 5511 5512 5512 5512 5513 5514 5515 5516 5518 5519 5521 5523 5526 5529 5533 5536 5539 5542 5545 5548 5551 5555 5559 5563 5567 5571 5576 5581 5586 5591 5595 5599 5604 5607 5611 5616 5620
5505 5502 5500 5499 5498 5497 5498 5498 5498 5498 5498 5499 5500 5501 5502 5504 5505 5507 5509 5512 5516 5519 5522 5525 5528 5532 5535 5539 5543 5547 5551 5556 5561 5566 5571 5575 5580 5584 5588 5592 5596 5601 5607
5492 5490 5488 5487 5486 5485 5484 5484 5484 5484 5484 5485 5485 5486 5487 5488 5490 5491 5493 5496 5500 5504 5506 5510 5513 5516 5519 5523 5527 5531 5536 5541 5546 5551 5555 5560 5565 5570 5573 5578 5581 5585 5591
5481 5479 5476 5475 5474 5473 5472 5471 5470 5470 5470 5471 5471 5472 5473 5474 5475 5476 5478 5481 5485 5489 5491 5494 5497 5501 5504 5508 5512 5517 5522 5527 5532 5536 5542 5546 5549 5553 5558 5562 5566 5571 5576
5469 5466 5464 5462 5461 5460 5459 5458 5457 5457 5457 5457 5457 5458 5459 5460 5461 5462 5464 5467 5471 5475 5478 5480 5483 5487 5491 5494 5498 5503 5508 5512 5516 5521 5526 5530 5534 5538 5542 5547 5551 5556 5561
5457 5455 5453 5451 5449 5448 5447 5446 5444 5444 5444 5444 5445 5445 5446 5447 5448 5449 5451 5454 5458 5461 5465 5468 5471 5474 5476 5479 5484 5489 5494 5498 5502 5507 5511 5516 5520 5524 5528 5532 5537 5541 5546
5446 5444 5441 5439 5437 5436 5435 5433 5432 5432 5432 5432 5433 5433 5434 5435 5436 5437 5439 5441 5444 5448 5451 5455 5458 5461 5463 5467 5470 5475 5480 5484 5488 5493 5497 5502 5506 5510 5514 5518 5522 5526 5531
5436 5433 5431 5428 5425 5424 5423 5422 5420 5419 5420 5420 5421 5421 5422 5423 5424 5426 5427 5430 5432 5435 5439 5442 5445 5448 5451 5455 5458 5462 5466 5470 5474 5479 5484 5488 5492 5497 5500 5504 5508 5512 5516
5426 5423 5420 5418 5415 5413 5412 5411 5410 5409 5408 5409 5409 5410 5411 5412 5413 5415 5417 5419 5421 5424 5427 5430 5433 5436 5439 5443 5446 5450 5453 5457 5461 5466 5471 5475 5479 5483 5487 5491 5494 5498 5502
5417 5413 5410 5408 5406 5404 5402 5401 5400 5399 5398 5398 5398 5399 5400 5402 5403 5405 5406 5408 5410 5413 5416 5419 5422 5425 5428 5432 5435 5439 5442 5446 5450 5454 5459 5463 5466 5470 5474 5478 5482 5485 5489
5407 5404 5401 5399 5397 5395 5393 5392 5390 5389 5388 5388 5388 5389 5390 5392 5393 5394 5395 5398 5400 5403 5406 5409 5412 5415 5418 5421 5424 5428 5431 5435 5439 5442 5446 5450 5454 5458 5462 5466 5469 5473 5477
5398 5395 5392 5390 5387 5386 5384 5383 5381 5380 5379 5378 5378 5379 5380 5381 5382 5384 5385 5387 5390 5392 5395 5398 5402 5405 5408 5411 5414 5417 5421 5424 5428 5431 5435 5439 5443 5447 5450 5454 5457 5461 5465
5388 5385 5382 5380 5378 5377 5375 5374 5373 5372 5370 5370 5370 5370 5371 5371 5373 5374 5376 5378 5380 5382 5385 5389 5392 5396 5398 5401 5404 5408 5411 5414 5418 5421 5425 5429 5432 5436 5439 5443 5446 5449 5453
5379 5376 5373 5371 5369 5368 5366 5364 5363 5363 5362 5362 5361 5361 5362 5363 5363 5364 5366 5368 5370 5373 5376 5379 5383 5386 5389 5392 5395 5398 5401 5404 5408 5412 5415 5419 5422 5425 5429 5432 5435 5438 5442
5370 5367 5365 5363 5361 5359 5357 5356 5354 5354 5353 5353 5353 5353 5353 5354 5355 5356 5357 5359 5361 5364 5367 5370 5373 5376 5379 5382 5385 5389 5392 5395 5399 5402 5406 5409 5412 5415 5418 5422 5425 5427 5431
5361 5358 5355 5353 5352 5350 5348 5347 5346 5345 5344 5344 5344 5344 5345 5345 5346 5348 5349 5350 5353 5355 5358 5360 5364 5367 5370 5373 5376 5380 5383 5386 5390 5393 5397 5400 5403 5406 5409 5412 5415 5418 5421
5352 5350 5347 5345 5343 5341 5340 5338 5337 5337 5336 5336 5336 5336 5336 5337 5338 5339 5341 5342 5344 5346 5349 5352 5355 5358 5361 5364 5367 5371 5374 5378 5381 5385 5388 5391 5394 5397 5400 5402 5405 5408 5411
5343 5341 5338 5336 5334 5333 5331 5330 5329 5329 5328 5328 5328 5328 5328 5329 5330 5331 5333 5334 5336 5338 5340 5343 5346 5349 5352 5356 5359 5362 5366 5369 5372 5376 5379 5382 5385 5388 5391 5393 5396 5399 5402
5334 5332 5330 5328 5327 5325 5324 5322 5321 5321 5320 5320 5320 5320 5321 5321 5322 5324 5325 5327 5329 5331 5333 5335 5338 5341 5344 5347 5351 5354 5357 5361 5364 5367 5370 5373 5376 5379 5382 5384 5387 5390 5392
5325 5324 5322 5320 5319 5317 5316 5315 5314 5313 5313 5313 5313 5313 5313 5314 5315 5317 5318 5320 5322 5324 5326 5328 5331 5334 5337 5340 5343 5346 5349 5352 5355 5358 5361 5364 5367 5370 5373 5375 5378 5381 5383
5317 5315 5313 5312 5311 5310 5309 5308 5307 5306 5306 5305 5305 5306 5306 5307 5308 5310 5311 5313 5315 5317 5319 5322 5324 5327 5330 5332 5335 5338 5341 5344 5346 5349 5352 5355 5358 5361 5363 5366 5369 5372 5374
5309 5307 5305 5304 5303 5302 5301 5300 5300 5299 5299 5299 5299 5299 5300 5301 5302 5304 5305 5307 5309 5311 5313 5316 5318 5321 5323 5326 5328 5331 5333 5336 5338 5341 5343 5346 5349 5352 5355 5357 5360 5363 5365